Wetterdaten: Sonntag, 12.11.2017
Datum Zeit Temp. A. Aussen2m Feuchte A. Feuchte 2 Luftdruck Regen Wind Richtung Richtung Sonnenschein
12.11.2017 00:00 4,6 C 4,6 C 99 % 94 % 1007,8 hPa 0,0 l/m 1,2 km/h (1 Bft) SW 225 0 min
12.11.2017 00:05 4,5 C 4,6 C 99 % 94 % 1007,8 hPa 0,0 l/m 1,2 km/h (1 Bft) S-SW 210 0 min
12.11.2017 00:10 4,6 C 4,5 C 99 % 94 % 1007,8 hPa 0,0 l/m 1,8 km/h (1 Bft) W 265 0 min
12.11.2017 00:15 4,5 C 4,5 C 99 % 94 % 1007,8 hPa 0,0 l/m 0,6 km/h (0 Bft) W-SW 245 0 min
12.11.2017 00:20 4,4 C 4,4 C 99 % 94 % 1007,8 hPa 0,0 l/m 1,8 km/h (1 Bft) W-SW 250 0 min
12.11.2017 00:25 4,3 C 4,4 C 99 % 94 % 1007,8 hPa 0,0 l/m 2,4 km/h (1 Bft) W-NW 285 0 min
12.11.2017 00:30 4,4 C 4,4 C 99 % 94 % 1007,8 hPa 0,0 l/m 3,6 km/h (1 Bft) W 260 0 min
12.11.2017 00:35 4,5 C 4,3 C 99 % 95 % 1007,8 hPa 0,0 l/m 4,2 km/h (1 Bft) S-SW 210 0 min
12.11.2017 00:40 4,6 C 4,4 C 99 % 95 % 1007,8 hPa 0,0 l/m 4,2 km/h (1 Bft) W 265 0 min
12.11.2017 00:45 4,7 C 4,6 C 99 % 95 % 1007,8 hPa 0,0 l/m 4,2 km/h (1 Bft) W 260 0 min
12.11.2017 00:50 4,7 C 4,7 C 99 % 95 % 1007,8 hPa 0,0 l/m 6,1 km/h (2 Bft) W-SW 255 0 min
12.11.2017 00:55 4,7 C 4,7 C 99 % 95 % 1007,8 hPa 0,0 l/m 5,4 km/h (2 Bft) SW 235 0 min
12.11.2017 01:00 4,6 C 4,7 C 99 % 94 % 1007,8 hPa 0,0 l/m 6,1 km/h (2 Bft) SW 225 0 min
12.11.2017 01:05 4,7 C 4,7 C 99 % 94 % 1007,8 hPa 0,0 l/m 6,7 km/h (2 Bft) W-SW 240 0 min
12.11.2017 01:10 4,6 C 4,6 C 99 % 94 % 1007,8 hPa 0,0 l/m 6,1 km/h (2 Bft) W 265 0 min
12.11.2017 01:15 4,6 C 4,6 C 98 % 94 % 1006,8 hPa 0,0 l/m 6,1 km/h (2 Bft) SW 235 0 min
12.11.2017 01:20 4,5 C 4,5 C 98 % 93 % 1006,8 hPa 0,0 l/m 6,1 km/h (2 Bft) W 280 0 min
12.11.2017 01:25 4,3 C 4,4 C 98 % 93 % 1006,8 hPa 0,0 l/m 2,4 km/h (1 Bft) W-NW 285 0 min
12.11.2017 01:30 4,3 C 4,3 C 99 % 93 % 1006,8 hPa 0,0 l/m 4,2 km/h (1 Bft) W-SW 250 0 min
12.11.2017 01:35 4,2 C 4,3 C 99 % 94 % 1006,8 hPa 0,0 l/m 1,2 km/h (1 Bft) W-NW 290 0 min
12.11.2017 01:40 4,2 C 4,3 C 99 % 94 % 1006,8 hPa 0,0 l/m 0,0 km/h (0 Bft) W-NW 285 0 min
12.11.2017 01:45 4,3 C 4,3 C 99 % 95 % 1006,8 hPa 0,0 l/m 0,6 km/h (0 Bft) W 265 0 min
12.11.2017 01:50 4,3 C 4,3 C 99 % 95 % 1006,8 hPa 0,0 l/m 1,2 km/h (1 Bft) W-NW 285 0 min
12.11.2017 01:55 4,4 C 4,4 C 99 % 95 % 1006,8 hPa 0,0 l/m 2,4 km/h (1 Bft) SW 220 0 min
12.11.2017 02:00 4,4 C 4,4 C 99 % 95 % 1006,8 hPa 0,0 l/m 3,0 km/h (1 Bft) SW 225 0 min
12.11.2017 02:05 4,5 C 4,4 C 99 % 95 % 1006,8 hPa 0,0 l/m 3,0 km/h (1 Bft) SW 220 0 min
12.11.2017 02:10 4,5 C 4,4 C 99 % 95 % 1006,8 hPa 0,0 l/m 2,4 km/h (1 Bft) S-SO 160 0 min
12.11.2017 02:15 4,4 C 4,4 C 99 % 94 % 1006,8 hPa 0,0 l/m 1,8 km/h (1 Bft) W-NW 285 0 min
12.11.2017 02:20 4,4 C 4,4 C 99 % 95 % 1006,8 hPa 0,0 l/m 2,4 km/h (1 Bft) W-NW 295 0 min
12.11.2017 02:25 4,5 C 4,4 C 99 % 95 % 1006,8 hPa 0,0 l/m 2,4 km/h (1 Bft) SW 235 0 min
12.11.2017 02:30 4,5 C 4,4 C 99 % 95 % 1006,8 hPa 0,0 l/m 2,4 km/h (1 Bft) W-NW 300 0 min
12.11.2017 02:35 4,6 C 4,4 C 99 % 95 % 1006,8 hPa 0,0 l/m 4,8 km/h (1 Bft) S-SW 210 0 min
12.11.2017 02:40 4,6 C 4,5 C 99 % 95 % 1006,8 hPa 0,0 l/m 3,0 km/h (1 Bft) W-SW 245 0 min
12.11.2017 02:45 4,6 C 4,6 C 98 % 94 % 1005,8 hPa 0,0 l/m 2,4 km/h (1 Bft) W-SW 250 0 min
12.11.2017 02:50 4,6 C 4,5 C 98 % 94 % 1005,8 hPa 0,0 l/m 1,2 km/h (1 Bft) W-NW 300 0 min
12.11.2017 02:55 4,5 C 4,5 C 98 % 94 % 1005,8 hPa 0,0 l/m 1,2 km/h (1 Bft) W-SW 255 0 min
12.11.2017 03:00 4,5 C 4,5 C 98 % 94 % 1005,8 hPa 0,0 l/m 2,4 km/h (1 Bft) W-SW 255 0 min
12.11.2017 03:05 4,5 C 4,4 C 98 % 94 % 1005,8 hPa 0,0 l/m 3,6 km/h (1 Bft) SW 230 0 min
12.11.2017 03:10 4,6 C 4,5 C 98 % 94 % 1005,8 hPa 0,0 l/m 4,2 km/h (1 Bft) SW 220 0 min
12.11.2017 03:15 4,7 C 4,5 C 97 % 94 % 1005,8 hPa 0,0 l/m 4,2 km/h (1 Bft) SW 225 0 min
12.11.2017 03:20 4,7 C 4,5 C 97 % 94 % 1005,8 hPa 0,0 l/m 6,1 km/h (2 Bft) W-SW 255 0 min
12.11.2017 03:25 4,7 C 4,5 C 97 % 93 % 1005,8 hPa 0,0 l/m 3,0 km/h (1 Bft) S-SW 200 0 min
12.11.2017 03:30 4,7 C 4,5 C 97 % 94 % 1005,8 hPa 0,0 l/m 1,2 km/h (1 Bft) W-SW 250 0 min
12.11.2017 03:35 4,6 C 4,5 C 97 % 93 % 1005,8 hPa 0,0 l/m 1,2 km/h (1 Bft) O-SO 120 0 min
12.11.2017 03:40 4,6 C 4,5 C 97 % 93 % 1005,8 hPa 0,0 l/m 1,8 km/h (1 Bft) S 180 0 min
12.11.2017 03:45 4,6 C 4,5 C 97 % 93 % 1004,8 hPa 0,0 l/m 0,0 km/h (0 Bft) S 180 0 min
12.11.2017 03:50 4,5 C 4,4 C 98 % 93 % 1004,8 hPa 0,0 l/m 1,2 km/h (1 Bft) S-SW 195 0 min
12.11.2017 03:55 4,5 C 4,4 C 98 % 93 % 1004,8 hPa 0,0 l/m 4,8 km/h (1 Bft) S-SO 165 0 min
12.11.2017 04:00 4,5 C 4,4 C 98 % 93 % 1005,8 hPa 0,0 l/m 1,8 km/h (1 Bft) S-SO 165 0 min
12.11.2017 04:05 4,5 C 4,4 C 98 % 94 % 1005,8 hPa 0,0 l/m 4,8 km/h (1 Bft) S-SO 155 0 min
12.11.2017 04:10 4,4 C 4,4 C 99 % 94 % 1005,8 hPa 0,0 l/m 3,0 km/h (1 Bft) S-SO 165 0 min
12.11.2017 04:15 4,4 C 4,4 C 99 % 94 % 1004,8 hPa 0,0 l/m 2,4 km/h (1 Bft) SO 125 0 min
12.11.2017 04:20 4,4 C 4,4 C 99 % 94 % 1004,8 hPa 0,0 l/m 4,8 km/h (1 Bft) SO 145 0 min
12.11.2017 04:25 4,3 C 4,4 C 99 % 94 % 1004,8 hPa 0,0 l/m 0,0 km/h (0 Bft) SO 140 0 min
12.11.2017 04:30 4,3 C 4,4 C 99 % 94 % 1004,8 hPa 0,0 l/m 0,0 km/h (0 Bft) SO 135 0 min
12.11.2017 04:35 4,3 C 4,4 C 99 % 94 % 1004,8 hPa 0,0 l/m 0,6 km/h (0 Bft) O-SO 110 0 min
12.11.2017 04:40 4,2 C 4,4 C 99 % 94 % 1004,8 hPa 0,0 l/m 1,2 km/h (1 Bft) S-SO 150 0 min
12.11.2017 04:45 4,3 C 4,4 C 99 % 94 % 1004,8 hPa 0,0 l/m 4,8 km/h (1 Bft) SO 145 0 min
12.11.2017 04:50 4,4 C 4,4 C 99 % 95 % 1004,8 hPa 0,0 l/m 2,4 km/h (1 Bft) SO 140 0 min
12.11.2017 04:55 4,4 C 4,4 C 99 % 95 % 1004,8 hPa 0,0 l/m 3,0 km/h (1 Bft) SO 145 0 min
12.11.2017 05:00 4,4 C 4,4 C 99 % 95 % 1004,8 hPa 0,0 l/m 4,8 km/h (1 Bft) S-SO 155 0 min
12.11.2017 05:05 4,5 C 4,4 C 99 % 95 % 1004,8 hPa 0,0 l/m 4,8 km/h (1 Bft) SO 140 0 min
12.11.2017 05:10 4,4 C 4,4 C 99 % 95 % 1004,8 hPa 0,0 l/m 3,0 km/h (1 Bft) SO 140 0 min
12.11.2017 05:15 4,4 C 4,4 C 99 % 95 % 1004,8 hPa 0,0 l/m 3,6 km/h (1 Bft) S-SO 160 0 min
12.11.2017 05:20 4,4 C 4,4 C 99 % 95 % 1004,8 hPa 0,0 l/m 3,0 km/h (1 Bft) S 170 0 min
12.11.2017 05:25 4,4 C 4,4 C 99 % 95 % 1004,8 hPa 0,0 l/m 2,4 km/h (1 Bft) S 185 0 min
12.11.2017 05:30 4,4 C 4,4 C 99 % 95 % 1004,8 hPa 0,0 l/m 3,6 km/h (1 Bft) S-SO 160 0 min
12.11.2017 05:35 4,5 C 4,4 C 99 % 95 % 1004,8 hPa 0,0 l/m 3,6 km/h (1 Bft) S 170 0 min
12.11.2017 05:40 4,4 C 4,4 C 99 % 95 % 1004,8 hPa 0,0 l/m 2,4 km/h (1 Bft) S-SO 165 0 min
12.11.2017 05:45 4,5 C 4,5 C 99 % 95 % 1004,8 hPa 0,0 l/m 3,6 km/h (1 Bft) S 170 0 min
12.11.2017 05:50 4,5 C 4,5 C 99 % 95 % 1004,8 hPa 0,0 l/m 3,6 km/h (1 Bft) SO 135 0 min
12.11.2017 05:55 4,6 C 4,5 C 99 % 95 % 1004,8 hPa 0,0 l/m 4,2 km/h (1 Bft) SO 140 0 min
12.11.2017 06:00 4,5 C 4,5 C 99 % 95 % 1003,8 hPa 0,0 l/m 1,2 km/h (1 Bft) SO 145 0 min
12.11.2017 06:05 4,6 C 4,6 C 99 % 95 % 1003,8 hPa 0,0 l/m 1,2 km/h (1 Bft) S-SO 155 0 min
12.11.2017 06:10 4,6 C 4,6 C 99 % 95 % 1003,8 hPa 0,0 l/m 1,8 km/h (1 Bft) O-SO 105 0 min
12.11.2017 06:15 4,6 C 4,6 C 99 % 95 % 1003,8 hPa 0,0 l/m 2,4 km/h (1 Bft) O-SO 110 0 min
12.11.2017 06:20 4,5 C 4,6 C 99 % 95 % 1003,8 hPa 0,0 l/m 1,8 km/h (1 Bft) O-SO 105 0 min
12.11.2017 06:25 4,5 C 4,6 C 99 % 95 % 1003,8 hPa 0,0 l/m 4,8 km/h (1 Bft) O 95 0 min
12.11.2017 06:30 4,5 C 4,6 C 99 % 95 % 1003,8 hPa 0,0 l/m 3,6 km/h (1 Bft) S-SW 195 0 min
12.11.2017 06:35 4,5 C 4,6 C 99 % 95 % 1003,8 hPa 0,0 l/m 1,8 km/h (1 Bft) SO 145 0 min
12.11.2017 06:40 4,5 C 4,6 C 99 % 95 % 1003,8 hPa 0,0 l/m 0,6 km/h (0 Bft) SO 130 0 min
12.11.2017 06:45 4,6 C 4,7 C 99 % 95 % 1003,8 hPa 0,0 l/m 3,0 km/h (1 Bft) O 100 0 min
12.11.2017 06:50 4,6 C 4,7 C 99 % 95 % 1003,8 hPa 0,0 l/m 2,4 km/h (1 Bft) S 180 0 min
12.11.2017 06:55 4,7 C 4,7 C 99 % 95 % 1003,8 hPa 0,0 l/m 5,4 km/h (2 Bft) S-SO 155 0 min
12.11.2017 07:00 4,7 C 4,8 C 99 % 96 % 1002,8 hPa 0,0 l/m 5,4 km/h (2 Bft) SO 135 0 min
12.11.2017 07:05 4,8 C 4,8 C 99 % 96 % 1002,8 hPa 0,0 l/m 7,3 km/h (2 Bft) SO 125 0 min
12.11.2017 07:10 4,8 C 4,9 C 99 % 96 % 1002,8 hPa 0,0 l/m 8,5 km/h (2 Bft) SO 140 0 min
12.11.2017 07:15 4,9 C 4,9 C 99 % 96 % 1002,8 hPa 0,0 l/m 4,2 km/h (1 Bft) SO 145 0 min
12.11.2017 07:20 4,9 C 4,9 C 99 % 96 % 1002,8 hPa 0,0 l/m 4,8 km/h (1 Bft) SO 135 0 min
12.11.2017 07:25 4,8 C 4,9 C 99 % 96 % 1002,8 hPa 0,0 l/m 4,2 km/h (1 Bft) O-SO 110 0 min
12.11.2017 07:30 4,9 C 4,9 C 99 % 96 % 1002,8 hPa 0,0 l/m 4,8 km/h (1 Bft) SO 140 0 min
12.11.2017 07:35 4,9 C 4,9 C 99 % 96 % 1002,8 hPa 0,0 l/m 7,3 km/h (2 Bft) S-SO 150 0 min
12.11.2017 07:40 4,9 C 4,9 C 99 % 96 % 1002,8 hPa 0,0 l/m 7,3 km/h (2 Bft) S-SO 155 0 min
12.11.2017 07:45 4,9 C 4,9 C 99 % 96 % 1001,8 hPa 0,0 l/m 7,9 km/h (2 Bft) S-SO 160 0 min
12.11.2017 07:50 5,0 C 5,0 C 99 % 96 % 1001,8 hPa 0,0 l/m 7,3 km/h (2 Bft) SO 140 0 min
12.11.2017 07:55 5,0 C 5,0 C 99 % 95 % 1001,8 hPa 0,0 l/m 7,3 km/h (2 Bft) S-SO 160 0 min
12.11.2017 08:00 5,0 C 5,0 C 99 % 95 % 1001,8 hPa 0,0 l/m 6,7 km/h (2 Bft) S-SO 165 0 min
12.11.2017 08:05 5,0 C 5,1 C 99 % 95 % 1001,8 hPa 0,0 l/m 7,9 km/h (2 Bft) S-SO 155 0 min
12.11.2017 08:10 5,1 C 5,1 C 99 % 95 % 1001,8 hPa 0,0 l/m 6,1 km/h (2 Bft) S-SW 195 0 min
12.11.2017 08:15 5,1 C 5,1 C 99 % 95 % 1001,8 hPa 0,0 l/m 8,5 km/h (2 Bft) S-SO 165 0 min
12.11.2017 08:20 5,2 C 5,1 C 99 % 95 % 1001,8 hPa 0,0 l/m 7,9 km/h (2 Bft) SO 145 0 min
12.11.2017 08:25 5,2 C 5,2 C 99 % 95 % 1001,8 hPa 0,0 l/m 7,3 km/h (2 Bft) S 185 0 min
12.11.2017 08:30 5,2 C 5,2 C 99 % 95 % 1001,8 hPa 0,0 l/m 6,7 km/h (2 Bft) S-SO 150 0 min
12.11.2017 08:35 5,2 C 5,2 C 99 % 95 % 1001,8 hPa 0,0 l/m 7,3 km/h (2 Bft) S-SO 165 0 min
12.11.2017 08:40 5,3 C 5,3 C 99 % 95 % 1001,8 hPa 0,0 l/m 4,8 km/h (1 Bft) S-SW 195 0 min
12.11.2017 08:45 5,3 C 5,3 C 99 % 95 % 1001,8 hPa 0,0 l/m 4,8 km/h (1 Bft) SW 215 0 min
12.11.2017 08:50 5,3 C 5,3 C 99 % 95 % 1001,8 hPa 0,0 l/m 7,9 km/h (2 Bft) S 185 0 min
12.11.2017 08:55 5,4 C 5,3 C 99 % 95 % 1001,8 hPa 0,0 l/m 10,9 km/h (2 Bft) W-SW 250 0 min
12.11.2017 09:00 5,4 C 5,3 C 98 % 95 % 1000,8 hPa 0,0 l/m 6,7 km/h (2 Bft) S-SW 210 0 min
12.11.2017 09:05 5,4 C 5,4 C 98 % 94 % 1000,8 hPa 0,0 l/m 6,7 km/h (2 Bft) S 190 0 min
12.11.2017 09:10 5,4 C 5,4 C 98 % 94 % 1000,8 hPa 0,0 l/m 9,1 km/h (2 Bft) O-SO 115 0 min
12.11.2017 09:15 5,4 C 5,4 C 98 % 94 % 1000,8 hPa 0,0 l/m 9,7 km/h (2 Bft) SW 220 0 min
12.11.2017 09:20 5,4 C 5,4 C 98 % 94 % 1000,8 hPa 0,0 l/m 9,7 km/h (2 Bft) SW 220 0 min
12.11.2017 09:25 5,4 C 5,5 C 98 % 94 % 1000,8 hPa 0,0 l/m 10,9 km/h (2 Bft) SW 235 0 min
12.11.2017 09:30 5,4 C 5,5 C 98 % 94 % 1000,8 hPa 0,0 l/m 9,7 km/h (2 Bft) S 170 0 min
12.11.2017 09:35 5,4 C 5,5 C 99 % 94 % 1000,8 hPa 0,0 l/m 7,3 km/h (2 Bft) SW 220 0 min
12.11.2017 09:40 5,4 C 5,5 C 99 % 95 % 1000,8 hPa 0,0 l/m 6,1 km/h (2 Bft) SW 215 0 min
12.11.2017 09:45 5,5 C 5,6 C 99 % 95 % 1000,8 hPa 0,0 l/m 6,7 km/h (2 Bft) W-SW 245 0 min
12.11.2017 09:50 5,4 C 5,5 C 99 % 95 % 1000,8 hPa 0,0 l/m 6,7 km/h (2 Bft) W 270 0 min
12.11.2017 09:55 5,4 C 5,5 C 99 % 95 % 1000,8 hPa 0,3 l/m 3,6 km/h (1 Bft) W-SW 250 0 min
12.11.2017 10:00 5,4 C 5,5 C 99 % 95 % 1000,8 hPa 0,0 l/m 4,8 km/h (1 Bft) N-NO 15 0 min
12.11.2017 10:05 5,4 C 5,6 C 99 % 95 % 1000,8 hPa 0,0 l/m 4,2 km/h (1 Bft) S 190 0 min
12.11.2017 10:10 5,4 C 5,6 C 99 % 95 % 1000,8 hPa 0,0 l/m 4,8 km/h (1 Bft) SW 225 0 min
12.11.2017 10:15 5,5 C 5,6 C 98 % 95 % 999,8 hPa 0,0 l/m 6,1 km/h (2 Bft) S-SW 205 0 min
12.11.2017 10:20 5,6 C 5,6 C 97 % 94 % 999,8 hPa 0,0 l/m 6,1 km/h (2 Bft) SW 220 0 min
12.11.2017 10:25 5,7 C 5,6 C 97 % 94 % 999,8 hPa 0,0 l/m 7,3 km/h (2 Bft) SO 125 0 min
12.11.2017 10:30 5,7 C 5,7 C 97 % 94 % 999,8 hPa 0,0 l/m 8,5 km/h (2 Bft) S 170 0 min
12.11.2017 10:35 5,7 C 5,8 C 96 % 94 % 999,8 hPa 0,0 l/m 5,4 km/h (2 Bft) S 190 0 min
12.11.2017 10:40 5,7 C 5,8 C 96 % 94 % 999,8 hPa 0,0 l/m 4,8 km/h (1 Bft) SW 225 0 min
12.11.2017 10:45 5,8 C 5,8 C 96 % 94 % 999,8 hPa 0,0 l/m 7,3 km/h (2 Bft) SW 220 0 min
12.11.2017 10:50 5,8 C 5,8 C 95 % 93 % 999,8 hPa 0,0 l/m 9,1 km/h (2 Bft) S-SW 210 0 min
12.11.2017 10:55 5,7 C 5,8 C 96 % 93 % 999,8 hPa 0,3 l/m 9,1 km/h (2 Bft) W 265 0 min
12.11.2017 11:00 5,7 C 5,8 C 96 % 93 % 999,8 hPa 0,3 l/m 24,2 km/h (4 Bft) NW 305 0 min
12.11.2017 11:05 5,7 C 5,8 C 94 % 91 % 999,8 hPa 0,3 l/m 20,0 km/h (4 Bft) W 275 0 min
12.11.2017 11:10 5,6 C 5,7 C 92 % 90 % 999,8 hPa 0,0 l/m 21,8 km/h (4 Bft) W-NW 300 0 min
12.11.2017 11:15 5,6 C 5,7 C 94 % 91 % 999,8 hPa 0,0 l/m 26,3 km/h (4 Bft) O-SO 105 0 min
12.11.2017 11:20 5,6 C 5,7 C 94 % 91 % 999,8 hPa 0,0 l/m 16,9 km/h (3 Bft) NW 310 0 min
12.11.2017 11:25 5,6 C 5,8 C 94 % 91 % 999,8 hPa 0,0 l/m 17,6 km/h (3 Bft) W-NW 295 0 min
12.11.2017 11:30 5,6 C 5,8 C 94 % 91 % 998,8 hPa 0,0 l/m 20,0 km/h (4 Bft) NW 320 0 min
12.11.2017 11:35 5,7 C 5,8 C 94 % 90 % 998,8 hPa 0,0 l/m 18,2 km/h (3 Bft) W-NW 300 0 min
12.11.2017 11:40 5,7 C 5,8 C 94 % 91 % 998,8 hPa 0,0 l/m 21,2 km/h (4 Bft) N-NW 340 0 min
12.11.2017 11:45 5,7 C 5,8 C 93 % 89 % 998,8 hPa 0,0 l/m 22,4 km/h (4 Bft) W-NW 295 0 min
12.11.2017 11:50 5,6 C 5,8 C 93 % 90 % 998,8 hPa 0,0 l/m 16,3 km/h (3 Bft) W 280 0 min
12.11.2017 11:55 5,6 C 5,8 C 93 % 89 % 998,8 hPa 0,0 l/m 16,9 km/h (3 Bft) W-NW 300 0 min
12.11.2017 12:00 5,7 C 5,8 C 93 % 90 % 998,8 hPa 0,0 l/m 13,9 km/h (3 Bft) W 280 0 min
12.11.2017 12:05 5,6 C 5,8 C 91 % 88 % 998,8 hPa 0,0 l/m 16,9 km/h (3 Bft) W-NW 285 0 min
12.11.2017 12:10 5,6 C 5,8 C 92 % 89 % 998,8 hPa 0,0 l/m 15,1 km/h (3 Bft) W-NW 290 0 min
12.11.2017 12:15 5,6 C 5,8 C 93 % 89 % 997,8 hPa 0,0 l/m 14,5 km/h (3 Bft) W-NW 290 0 min
12.11.2017 12:20 5,5 C 5,8 C 92 % 89 % 997,8 hPa 0,0 l/m 18,8 km/h (3 Bft) W-NW 290 0 min
12.11.2017 12:25 5,4 C 5,7 C 92 % 89 % 997,8 hPa 0,0 l/m 16,9 km/h (3 Bft) NW 315 0 min
12.11.2017 12:30 5,5 C 5,7 C 94 % 89 % 997,8 hPa 0,0 l/m 8,5 km/h (2 Bft) NW 315 0 min
12.11.2017 12:35 5,6 C 5,8 C 93 % 90 % 997,8 hPa 0,0 l/m 8,5 km/h (2 Bft) SW 225 0 min
12.11.2017 12:40 5,6 C 5,8 C 92 % 89 % 997,8 hPa 0,0 l/m 5,4 km/h (2 Bft) SW 225 0 min
12.11.2017 12:45 5,6 C 5,8 C 93 % 90 % 997,8 hPa 0,0 l/m 5,4 km/h (2 Bft) N-NW 340 0 min
12.11.2017 12:50 5,8 C 5,8 C 93 % 90 % 997,8 hPa 0,0 l/m 5,4 km/h (2 Bft) SW 220 6 min
12.11.2017 12:55 6,1 C 6,0 C 91 % 89 % 997,8 hPa 0,0 l/m 9,1 km/h (2 Bft) W-SW 255 6 min
12.11.2017 13:00 6,2 C 6,1 C 91 % 89 % 997,8 hPa 0,0 l/m 6,7 km/h (2 Bft) W-SW 245 2 min
12.11.2017 13:05 6,4 C 6,1 C 90 % 89 % 997,8 hPa 0,0 l/m 6,1 km/h (2 Bft) NW 315 4 min
12.11.2017 13:10 6,3 C 6,1 C 89 % 87 % 997,8 hPa 0,0 l/m 15,7 km/h (3 Bft) NW 315 4 min
12.11.2017 13:15 6,4 C 6,3 C 88 % 88 % 997,8 hPa 0,0 l/m 13,9 km/h (3 Bft) O-NO 70 5 min
12.11.2017 13:20 6,8 C 6,5 C 89 % 89 % 997,8 hPa 0,0 l/m 9,7 km/h (2 Bft) NW 315 4 min
12.11.2017 13:25 6,9 C 6,6 C 88 % 88 % 997,8 hPa 0,0 l/m 11,5 km/h (2 Bft) W-NW 300 5 min
12.11.2017 13:30 6,8 C 6,6 C 88 % 88 % 997,8 hPa 0,0 l/m 7,3 km/h (2 Bft) W-NW 300 4 min
12.11.2017 13:35 6,7 C 6,6 C 87 % 86 % 997,8 hPa 0,0 l/m 12,1 km/h (2 Bft) W 275 6 min
12.11.2017 13:40 6,7 C 6,6 C 88 % 86 % 997,8 hPa 0,0 l/m 17,6 km/h (3 Bft) W-NW 285 4 min
12.11.2017 13:45 6,7 C 6,7 C 88 % 86 % 997,8 hPa 0,0 l/m 14,5 km/h (3 Bft) W 260 6 min
12.11.2017 13:50 6,5 C 6,6 C 87 % 85 % 997,8 hPa 0,0 l/m 28,2 km/h (5 Bft) NW 310 5 min
12.11.2017 13:55 6,5 C 6,6 C 88 % 86 % 997,8 hPa 0,0 l/m 23,6 km/h (4 Bft) W 265 5 min
12.11.2017 14:00 6,5 C 6,6 C 88 % 86 % 997,8 hPa 0,0 l/m 21,2 km/h (4 Bft) W 275 5 min
12.11.2017 14:05 6,5 C 6,6 C 88 % 86 % 997,8 hPa 0,0 l/m 16,3 km/h (3 Bft) W 275 3 min
12.11.2017 14:10 6,5 C 6,6 C 88 % 86 % 997,8 hPa 0,0 l/m 13,9 km/h (3 Bft) W-NW 290 6 min
12.11.2017 14:15 6,4 C 6,5 C 87 % 85 % 997,8 hPa 0,0 l/m 23,0 km/h (4 Bft) W-NW 295 3 min
12.11.2017 14:20 6,5 C 6,6 C 87 % 85 % 997,8 hPa 0,0 l/m 20,6 km/h (4 Bft) W-NW 295 4 min
12.11.2017 14:25 6,4 C 6,5 C 88 % 86 % 997,8 hPa 0,0 l/m 16,9 km/h (3 Bft) NW 305 0 min
12.11.2017 14:30 6,3 C 6,4 C 86 % 84 % 997,8 hPa 0,0 l/m 26,3 km/h (4 Bft) W-NW 290 0 min
12.11.2017 14:35 6,2 C 6,4 C 86 % 84 % 997,8 hPa 0,0 l/m 23,6 km/h (4 Bft) S 185 0 min
12.11.2017 14:40 6,1 C 6,3 C 87 % 84 % 997,8 hPa 0,0 l/m 27,4 km/h (5 Bft) W-NW 295 4 min
12.11.2017 14:45 5,9 C 6,2 C 88 % 85 % 997,8 hPa 0,0 l/m 26,3 km/h (4 Bft) W-SW 250 5 min
12.11.2017 14:50 5,9 C 6,2 C 88 % 86 % 997,8 hPa 0,0 l/m 20,0 km/h (4 Bft) NW 315 3 min
12.11.2017 14:55 5,8 C 6,1 C 88 % 86 % 997,8 hPa 0,0 l/m 20,6 km/h (4 Bft) NW 320 5 min
12.11.2017 15:00 5,8 C 6,0 C 87 % 85 % 997,8 hPa 0,0 l/m 20,6 km/h (4 Bft) W-NW 290 4 min
12.11.2017 15:05 5,9 C 6,0 C 88 % 86 % 997,8 hPa 0,0 l/m 21,8 km/h (4 Bft) W-NW 295 6 min
12.11.2017 15:10 5,9 C 6,0 C 88 % 86 % 997,8 hPa 0,0 l/m 16,9 km/h (3 Bft) NW 310 4 min
12.11.2017 15:15 5,9 C 6,0 C 88 % 85 % 997,8 hPa 0,0 l/m 21,8 km/h (4 Bft) N-NW 340 2 min
12.11.2017 15:20 6,0 C 6,1 C 87 % 85 % 997,8 hPa 0,0 l/m 27,1 km/h (5 Bft) W-NW 295 2 min
12.11.2017 15:25 6,0 C 6,2 C 85 % 84 % 997,8 hPa 0,0 l/m 24,2 km/h (4 Bft) W-NW 295 6 min
12.11.2017 15:30 6,0 C 6,0 C 86 % 84 % 997,8 hPa 0,0 l/m 23,6 km/h (4 Bft) W-NW 300 5 min
12.11.2017 15:35 5,9 C 5,9 C 86 % 84 % 997,8 hPa 0,0 l/m 26,0 km/h (4 Bft) W-NW 295 5 min
12.11.2017 15:40 5,7 C 5,8 C 87 % 84 % 997,8 hPa 0,0 l/m 21,8 km/h (4 Bft) N-NW 330 0 min
12.11.2017 15:45 5,6 C 5,8 C 87 % 84 % 997,8 hPa 0,0 l/m 27,8 km/h (5 Bft) NW 320 0 min
12.11.2017 15:50 5,6 C 5,8 C 87 % 85 % 997,8 hPa 0,0 l/m 24,2 km/h (4 Bft) N-NW 330 0 min
12.11.2017 15:55 5,6 C 5,8 C 87 % 85 % 997,8 hPa 0,0 l/m 25,4 km/h (4 Bft) W-SW 250 0 min
12.11.2017 16:00 5,6 C 5,7 C 88 % 85 % 997,8 hPa 0,0 l/m 23,6 km/h (4 Bft) W-NW 300 0 min
12.11.2017 16:05 5,5 C 5,7 C 88 % 85 % 997,8 hPa 0,0 l/m 19,4 km/h (3 Bft) W-NW 285 0 min
12.11.2017 16:10 5,4 C 5,6 C 88 % 86 % 997,8 hPa 0,0 l/m 21,8 km/h (4 Bft) W-NW 285 0 min
12.11.2017 16:15 5,4 C 5,6 C 88 % 86 % 997,8 hPa 0,0 l/m 16,3 km/h (3 Bft) W-NW 285 0 min
12.11.2017 16:20 5,1 C 5,4 C 89 % 86 % 997,8 hPa 0,0 l/m 18,2 km/h (3 Bft) SW 220 0 min
12.11.2017 16:25 5,2 C 5,4 C 88 % 85 % 997,8 hPa 0,0 l/m 21,2 km/h (4 Bft) W 265 0 min
12.11.2017 16:30 5,1 C 5,3 C 89 % 86 % 997,8 hPa 0,0 l/m 21,8 km/h (4 Bft) W-NW 290 0 min
12.11.2017 16:35 5,1 C 5,3 C 89 % 86 % 997,8 hPa 0,0 l/m 22,4 km/h (4 Bft) W-NW 295 0 min
12.11.2017 16:40 5,2 C 5,3 C 88 % 86 % 997,8 hPa 0,0 l/m 22,4 km/h (4 Bft) W 280 0 min
12.11.2017 16:45 5,2 C 5,3 C 89 % 86 % 997,8 hPa 0,0 l/m 26,0 km/h (4 Bft) W-SW 255 0 min
12.11.2017 16:50 5,1 C 5,3 C 89 % 87 % 997,8 hPa 0,0 l/m 23,0 km/h (4 Bft) W-NW 295 0 min
12.11.2017 16:55 5,1 C 5,3 C 89 % 87 % 997,8 hPa 0,0 l/m 25,4 km/h (4 Bft) W-NW 300 0 min
12.11.2017 17:00 5,1 C 5,3 C 89 % 87 % 998,8 hPa 0,0 l/m 18,8 km/h (3 Bft) W-NW 295 0 min
12.11.2017 17:05 5,1 C 5,3 C 90 % 87 % 998,8 hPa 0,0 l/m 26,3 km/h (4 Bft) W-NW 295 0 min
12.11.2017 17:10 5,1 C 5,2 C 90 % 87 % 998,8 hPa 0,0 l/m 26,0 km/h (4 Bft) W-NW 290 0 min
12.11.2017 17:15 5,1 C 5,2 C 90 % 87 % 999,8 hPa 0,0 l/m 23,0 km/h (4 Bft) NW 305 0 min
12.11.2017 17:20 5,1 C 5,2 C 90 % 87 % 999,8 hPa 0,0 l/m 21,8 km/h (4 Bft) NW 305 0 min
12.11.2017 17:25 5,1 C 5,2 C 90 % 87 % 999,8 hPa 0,0 l/m 21,8 km/h (4 Bft) W 280 0 min
12.11.2017 17:30 5,0 C 5,2 C 91 % 88 % 998,8 hPa 0,0 l/m 14,5 km/h (3 Bft) W-NW 295 0 min
12.11.2017 17:35 4,9 C 5,1 C 92 % 88 % 998,8 hPa 0,0 l/m 15,7 km/h (3 Bft) W 275 0 min
12.11.2017 17:40 4,9 C 5,1 C 92 % 88 % 998,8 hPa 0,0 l/m 16,9 km/h (3 Bft) W 260 0 min
12.11.2017 17:45 4,9 C 5,1 C 92 % 88 % 999,8 hPa 0,0 l/m 18,2 km/h (3 Bft) W-NW 285 0 min
12.11.2017 17:50 4,9 C 5,0 C 92 % 89 % 999,8 hPa 0,0 l/m 13,9 km/h (3 Bft) S-SW 210 0 min
12.11.2017 17:55 4,8 C 5,0 C 93 % 89 % 999,8 hPa 0,0 l/m 18,8 km/h (3 Bft) W-NW 300 0 min
12.11.2017 18:00 4,8 C 4,9 C 93 % 89 % 999,8 hPa 0,0 l/m 19,4 km/h (3 Bft) W-NW 290 0 min
12.11.2017 18:05 4,8 C 4,9 C 93 % 90 % 999,8 hPa 0,0 l/m 21,2 km/h (4 Bft) W-NW 285 0 min
12.11.2017 18:10 4,8 C 4,9 C 93 % 90 % 999,8 hPa 0,0 l/m 21,8 km/h (4 Bft) W 265 0 min
12.11.2017 18:15 4,7 C 4,9 C 94 % 90 % 999,8 hPa 0,0 l/m 20,6 km/h (4 Bft) NW 310 0 min
12.11.2017 18:20 4,6 C 4,9 C 94 % 90 % 999,8 hPa 0,0 l/m 18,8 km/h (3 Bft) W-NW 295 0 min
12.11.2017 18:25 4,6 C 4,8 C 94 % 90 % 999,8 hPa 0,0 l/m 19,4 km/h (3 Bft) W-NW 300 0 min
12.11.2017 18:30 4,6 C 4,7 C 94 % 91 % 1000,8 hPa 0,0 l/m 15,1 km/h (3 Bft) W-NW 300 0 min
12.11.2017 18:35 4,6 C 4,7 C 94 % 91 % 1000,8 hPa 0,0 l/m 17,6 km/h (3 Bft) W-NW 300 0 min
12.11.2017 18:40 4,6 C 4,8 C 95 % 91 % 1000,8 hPa 0,0 l/m 15,1 km/h (3 Bft) W-NW 290 0 min
12.11.2017 18:45 4,7 C 4,8 C 94 % 91 % 1000,8 hPa 0,0 l/m 16,9 km/h (3 Bft) W-NW 290 0 min
12.11.2017 18:50 4,7 C 4,8 C 94 % 91 % 1000,8 hPa 0,0 l/m 22,4 km/h (4 Bft) NW 305 0 min
12.11.2017 18:55 4,7 C 4,8 C 94 % 90 % 1000,8 hPa 0,0 l/m 21,8 km/h (4 Bft) N-NW 330 0 min
12.11.2017 19:00 4,8 C 4,8 C 94 % 91 % 1000,8 hPa 0,0 l/m 26,0 km/h (4 Bft) W-NW 290 0 min
12.11.2017 19:05 4,7 C 4,9 C 94 % 91 % 1000,8 hPa 0,0 l/m 24,8 km/h (4 Bft) NW 320 0 min
12.11.2017 19:10 4,7 C 4,9 C 94 % 91 % 1000,8 hPa 0,0 l/m 22,4 km/h (4 Bft) W-NW 300 0 min
12.11.2017 19:15 4,7 C 4,9 C 95 % 91 % 1000,8 hPa 0,0 l/m 21,2 km/h (4 Bft) NW 305 0 min
12.11.2017 19:20 4,7 C 4,9 C 94 % 91 % 1000,8 hPa 0,0 l/m 24,8 km/h (4 Bft) NW 325 0 min
12.11.2017 19:25 4,8 C 4,9 C 94 % 91 % 1000,8 hPa 0,0 l/m 26,0 km/h (4 Bft) W-NW 295 0 min
12.11.2017 19:30 4,8 C 4,9 C 93 % 90 % 1001,8 hPa 0,0 l/m 25,4 km/h (4 Bft) W-NW 290 0 min
12.11.2017 19:35 4,7 C 4,9 C 94 % 90 % 1001,8 hPa 0,0 l/m 23,0 km/h (4 Bft) NW 325 0 min
12.11.2017 19:40 4,7 C 4,9 C 94 % 90 % 1001,8 hPa 0,0 l/m 19,4 km/h (3 Bft) NW 320 0 min
12.11.2017 19:45 4,7 C 4,9 C 94 % 90 % 1002,8 hPa 0,0 l/m 20,6 km/h (4 Bft) NW 325 0 min
12.11.2017 19:50 4,7 C 4,9 C 94 % 91 % 1002,8 hPa 0,0 l/m 20,0 km/h (4 Bft) W-NW 290 0 min
12.11.2017 19:55 4,7 C 4,8 C 94 % 90 % 1002,8 hPa 0,0 l/m 20,6 km/h (4 Bft) W-NW 285 0 min
12.11.2017 20:00 4,6 C 4,8 C 94 % 90 % 1002,8 hPa 0,0 l/m 20,6 km/h (4 Bft) W 280 0 min
12.11.2017 20:05 4,7 C 4,8 C 94 % 91 % 1002,8 hPa 0,0 l/m 19,4 km/h (3 Bft) W-NW 300 0 min
12.11.2017 20:10 4,8 C 4,9 C 94 % 90 % 1002,8 hPa 0,0 l/m 23,6 km/h (4 Bft) W 260 0 min
12.11.2017 20:15 4,8 C 4,9 C 94 % 90 % 1002,8 hPa 0,0 l/m 21,2 km/h (4 Bft) W 275 0 min
12.11.2017 20:20 4,8 C 4,9 C 94 % 90 % 1002,8 hPa 0,0 l/m 20,0 km/h (4 Bft) W-NW 300 0 min
12.11.2017 20:25 4,8 C 4,9 C 94 % 91 % 1002,8 hPa 0,0 l/m 19,4 km/h (3 Bft) W 265 0 min
12.11.2017 20:30 4,7 C 4,9 C 94 % 91 % 1002,8 hPa 0,0 l/m 20,0 km/h (4 Bft) NW 305 0 min
12.11.2017 20:35 4,7 C 4,9 C 94 % 91 % 1002,8 hPa 0,0 l/m 20,6 km/h (4 Bft) NW 305 0 min
12.11.2017 20:40 4,8 C 4,9 C 94 % 91 % 1002,8 hPa 0,0 l/m 20,6 km/h (4 Bft) NW 310 0 min
12.11.2017 20:45 4,8 C 4,9 C 94 % 90 % 1002,8 hPa 0,0 l/m 23,0 km/h (4 Bft) W-NW 300 0 min
12.11.2017 20:50 4,7 C 4,9 C 94 % 90 % 1002,8 hPa 0,0 l/m 19,4 km/h (3 Bft) NW 305 0 min
12.11.2017 20:55 4,7 C 4,9 C 94 % 91 % 1002,8 hPa 0,0 l/m 13,9 km/h (3 Bft) N 350 0 min
12.11.2017 21:00 4,7 C 4,9 C 94 % 91 % 1003,8 hPa 0,0 l/m 15,7 km/h (3 Bft) W-NW 300 0 min
12.11.2017 21:05 4,6 C 4,8 C 95 % 91 % 1003,8 hPa 0,0 l/m 18,2 km/h (3 Bft) W 270 0 min
12.11.2017 21:10 4,6 C 4,8 C 95 % 91 % 1003,8 hPa 0,0 l/m 15,1 km/h (3 Bft) W-NW 295 0 min
12.11.2017 21:15 4,6 C 4,8 C 95 % 91 % 1003,8 hPa 0,0 l/m 16,9 km/h (3 Bft) NW 325 0 min
12.11.2017 21:20 4,6 C 4,8 C 95 % 91 % 1003,8 hPa 0,0 l/m 16,3 km/h (3 Bft) NW 310 0 min
12.11.2017 21:25 4,5 C 4,7 C 95 % 91 % 1003,8 hPa 0,0 l/m 19,4 km/h (3 Bft) W-NW 295 0 min
12.11.2017 21:30 4,5 C 4,7 C 95 % 91 % 1003,8 hPa 0,0 l/m 16,9 km/h (3 Bft) W 280 0 min
12.11.2017 21:35 4,5 C 4,7 C 95 % 91 % 1003,8 hPa 0,0 l/m 15,7 km/h (3 Bft) W-NW 285 0 min
12.11.2017 21:40 4,4 C 4,6 C 95 % 91 % 1003,8 hPa 0,0 l/m 16,9 km/h (3 Bft) NW 305 0 min
12.11.2017 21:45 4,4 C 4,5 C 96 % 91 % 1004,8 hPa 0,0 l/m 18,8 km/h (3 Bft) NW 305 0 min
12.11.2017 21:50 4,4 C 4,5 C 96 % 91 % 1004,8 hPa 0,0 l/m 15,7 km/h (3 Bft) W 280 0 min
12.11.2017 21:55 4,4 C 4,5 C 96 % 91 % 1004,8 hPa 0,0 l/m 21,2 km/h (4 Bft) NW 305 0 min
12.11.2017 22:00 4,4 C 4,5 C 96 % 92 % 1004,8 hPa 0,0 l/m 20,6 km/h (4 Bft) SW 235 0 min
12.11.2017 22:05 4,4 C 4,5 C 96 % 92 % 1004,8 hPa 0,0 l/m 16,9 km/h (3 Bft) W 275 0 min
12.11.2017 22:10 4,5 C 4,6 C 96 % 92 % 1004,8 hPa 0,0 l/m 16,9 km/h (3 Bft) W 265 0 min
12.11.2017 22:15 4,5 C 4,6 C 96 % 92 % 1004,8 hPa 0,0 l/m 20,0 km/h (4 Bft) W-NW 290 0 min
12.11.2017 22:20 4,6 C 4,7 C 96 % 92 % 1004,8 hPa 0,0 l/m 20,6 km/h (4 Bft) NW 320 0 min
12.11.2017 22:25 4,6 C 4,7 C 96 % 92 % 1004,8 hPa 0,0 l/m 21,2 km/h (4 Bft) N 355 0 min
12.11.2017 22:30 4,6 C 4,7 C 96 % 92 % 1005,8 hPa 0,0 l/m 16,9 km/h (3 Bft) W-NW 295 0 min
12.11.2017 22:35 4,6 C 4,7 C 96 % 92 % 1005,8 hPa 0,0 l/m 21,2 km/h (4 Bft) W-NW 300 0 min
12.11.2017 22:40 4,6 C 4,7 C 96 % 92 % 1005,8 hPa 0,0 l/m 15,7 km/h (3 Bft) W 275 0 min
12.11.2017 22:45 4,5 C 4,7 C 96 % 92 % 1004,8 hPa 0,0 l/m 18,8 km/h (3 Bft) N 350 0 min
12.11.2017 22:50 4,6 C 4,7 C 96 % 92 % 1004,8 hPa 0,0 l/m 19,4 km/h (3 Bft) W 275 0 min
12.11.2017 22:55 4,6 C 4,6 C 96 % 92 % 1004,8 hPa 0,0 l/m 23,0 km/h (4 Bft) N-NW 330 0 min
12.11.2017 23:00 4,5 C 4,6 C 96 % 92 % 1004,8 hPa 0,0 l/m 18,8 km/h (3 Bft) W 265 0 min
12.11.2017 23:05 4,5 C 4,6 C 96 % 92 % 1004,8 hPa 0,0 l/m 21,2 km/h (4 Bft) W-NW 300 0 min
12.11.2017 23:10 4,5 C 4,7 C 96 % 92 % 1004,8 hPa 0,0 l/m 19,4 km/h (3 Bft) W-NW 295 0 min
12.11.2017 23:15 4,6 C 4,7 C 96 % 92 % 1005,8 hPa 0,0 l/m 18,2 km/h (3 Bft) W 260 0 min
12.11.2017 23:20 4,6 C 4,7 C 96 % 92 % 1005,8 hPa 0,0 l/m 14,5 km/h (3 Bft) NW 310 0 min
12.11.2017 23:25 4,5 C 4,6 C 96 % 91 % 1005,8 hPa 0,0 l/m 18,8 km/h (3 Bft) W-NW 290 0 min
12.11.2017 23:30 4,3 C 4,5 C 96 % 91 % 1005,8 hPa 0,0 l/m 15,1 km/h (3 Bft) W-NW 295 0 min
12.11.2017 23:35 4,2 C 4,4 C 97 % 92 % 1005,8 hPa 0,0 l/m 16,9 km/h (3 Bft) NW 320 0 min
12.11.2017 23:40 4,2 C 4,3 C 97 % 92 % 1005,8 hPa 0,0 l/m 17,6 km/h (3 Bft) NW 310 0 min
12.11.2017 23:45 4,1 C 4,2 C 97 % 92 % 1006,8 hPa 0,0 l/m 12,1 km/h (2 Bft) N 355 0 min
12.11.2017 23:50 4,1 C 4,2 C 97 % 92 % 1006,8 hPa 0,0 l/m 13,9 km/h (3 Bft) NW 315 0 min
12.11.2017 23:55 4,0 C 4,1 C 97 % 92 % 1006,8 hPa 0,0 l/m 13,3 km/h (3 Bft) NW 325 0 min
_ Min-Zeit 23:55 23:55 15:25 14:30 13:45 - 01:40 - - -
Minimum _ 4,0 C 4,1 C 85 % 84 % 997,8 hPa - 0,0 km/h (0 Bft) - - -
_ Max-Zeit 13:25 13:45 00:00 07:00 00:35 09:55 13:50 - - 12:50
Maximum _ 6,9 C 6,7 C 99 % 96 % 1007,8 hPa 0,3 l/m 28,2 km/h
NW (5 Bft)
- - 6 min
Durchschnitt _ 5,0 C 5,1 C 95 % 92 % 1002,2 hPa #1,2 l/m 12,3 km/h (2 Bft) W-NW - #2:18 h